Location: ??
(35.5672°N, 139.6509°E)
Time: 11:02:14
(UTC+00:00)

Cosmos 1939 Rocket - Pass Details

Date: 03 August 2024
Orbit: 511 x 553 km, 97.5° (Epoch: 08 September)

Event Time Altitude Azimuth Distance (km) Brightness Sun altitude
Rises 18:46:48 0° 21° (NNE) 2,633 7.2 -12.6°
Reaches altitude 10° 18:49:01 10° 30° (NNE) 1,746 6.4 -12.2°
Maximum altitude 18:52:30 36° 98° (E) 839 4.3 -11.6°
Drops below altitude 10° 18:56:00 10° 166° (SSE) 1,752 5.2 -11.0°
Sets 18:58:13 0° 175° (S) 2,644 6.0 -10.6°
